COSMOS 1040

Satellite information

Favourite Embed

Satellite Type and Status

PAYLOADIN ORBIT

Key statistics

Satellite COSMOS 1040 at a glance.

Uptime

17241

Days in orbit

Revolutions

≈ 12.4

Per day

Orbit

LEO

Low Earth Orbit

Inclination

74.0

Latest

Satellite identification and parameters

Extended collection of information and parameters for COSMOS 1040.

Object identification

Identified? True

Debris? False

Object name: COSMOS 1040

International designator: 1978-091G

Object number (NORAD): 11049

Object ID (CCSDS): 11049

Country: COMMONWEALTH OF INDEPENDENT STATES (CIS)

Current information (Y/N): Y

RCS size: MEDIUM

Orbital parameters

Period: 116.047 minutes

Inclination: 74.0351 deg

SMA: 7881.02 km

Apoapsis: 1526.96 km

Periapsis: 1478.81 km

RAAN: 248.7128 deg

Eccentricy: 0.00305481

Argument of periapsis: 341.7191 deg

Mean anomaly: 29.308 deg

Mean motion: 12.40878074 rev/day

Mean motion (dot): -0.00000016 rev/day2

B* drag term: -0.000007006547 1/REarth

Two-line elements (TLE)

Creation date: Dec. 16, 2025, 2:19 a.m.

Reference frame: TEME

Reference center: EARTH

Epoch: Dec. 15, 2025, 11:22 p.m. UTC

TLE line 0: 0 COSMOS 1040

TLE line 1: 1 11049U 78091G 25349.97392119 -.00000016 00000-0 -70065-5 0 9996

TLE line 2: 2 11049 74.0351 248.7128 0030548 341.7191 29.3080 12.40878074138101

Live tracking on map

Real-time ground track for satellite COSMOS 1040.

In-orbit conjunctions

A list of the most updated potential collisions computed for object COSMOS 1040.

Target Orbit TCA Probability of collision Miss distance Type
THORAD DELTA 1 DEB SSO 2025-11-01 00:12:16 0.0003217487 81.0 (m) DEBRIS
THORAD DELTA 1 DEB SSO 2025-08-22 18:57:15 0.0003964784 535.0 (m) DEBRIS

Associated space launch

Military communications satellites

COSMOS 1040 was lifted into orbit during the mission ‘Kosmos-3M | Strela-1M 153-160’, on board a Kosmos-3M space rocket.

The launch took place on Oct. 4, 1978, 3:49 a.m. from 132/1 (132L).

For more information about the launch, click the button.

Launch to space Kosmos-3M | Strela-1M 153-160
Kosmos-3M | Strela-1M 153-160

Agency: N/A

Status: Launch Successful

Launch date: Oct. 4, 1978, 3:49 a.m. UTC

Rocket: Kosmos-3M

Launch pad: 132/1 (132L)

Location: Plesetsk Cosmodrome, Russian Federation

...

Latest news about this satellite

There are no fresh news available about this satellite. Check back as we update our databases every day.


Newsletter sign-up

Weekly statistics, charts and insights to help you stay on top of the space industry.